Weather in Vozritsy

Russia / Republic of Karelia     62°40′32″N   35°23′18″E
temp.,
°C
wind,
m/s
gust,
m/s
humid.,
%
clouds,
%
prec.,
mm/h
press.,
hPa
HPBL,
m
13 may, thu
thu1300:00+13sse22650 0.0 102115
03:00+12sse11670 0.0 102112
06:00+14sse13700 0.0 102084
09:00+19s35580 0.0 1020382
12:00+23s35467 0.0 1019904
15:00+23ssw35425 0.0 10181094
18:00+23s23441 0.0 1016813
21:00+18e117096 0.0 101520
14 may, fri
fri1400:00+15e268021 0.6 1014117
03:00+13e228841 0.6 101241
06:00+14sse3109023 0.6 1011455
09:00+13s4893100 0.8 1012427
12:00+17s57632 0.0 10121026
15:00+18s57482 0.0 10121663
18:00+18s474528 0.0 10121433
21:00+12ssw226713 0.0 101329
15 may, sat
sat1500:00+12nnw117284 0.0 101221
03:00+12ne1173100 0.0 101215
06:00+12ese277298 0.1 1011253
09:00+16sse366036 0.1 1010618
12:00+20s354670 0.0 10091386
15:00+21s3443100 0.0 10071812
18:00+16nnw1181100 0.5 1007109
21:00+14nne3782100 1.0 1005198
16 may, sun
sun1600:00+13nne3985100 0.0 1004253
03:00+11nne3991100 1.2 1003289
06:00+10n3887100 0.1 1003270
09:00+12n4678100 0.1 1004448
12:00+16nnw3464100 0.1 1005835
15:00+16nnw445967 0.1 1006905
18:00+13nnw4467100 0.0 1008604
21:00+8nnw3682100 0.0 1010305
17 may, mon
mon1700:00+7nnw248299 0.0 1012237
03:00+7n238399 0.0 1014213
06:00+7nnw12808 0.0 1015227
09:00+12w226275 0.0 1017578
12:00+16wsw23525 0.0 1017954
15:00+18wsw22485 0.0 10171185
18:00+18sw215259 0.0 1017966
21:00+13n007385 0.0 101812